Snowfall_Accumulation
1.7 1.9 2.1 1.7 1.7 1.9 2.3 3.4 6.5 5.5 1.8 0.6 0.1 0.0 0.1 0.1 0.1 0.1 0.1 0.1 0.2 0.4 0.4 0.4 0.3 0.3 0.3 0.2 0.3 0.2 0.3 0.1 0.1 0.0 0.0 0.0 0.0 0.0
1.8 2.0 2.2 2.1 1.9 1.9 2.1 2.5 3.8 6.0 4.5 1.0 0.5 0.1 0.1 0.1 0.1 0.1 0.1 0.1 0.2 0.3 0.3 0.2 0.3 0.2 0.2 0.3 0.2 0.3 0.3 0.2 0.1 0.0 0.0 0.0 0.0 0.0
1.7 2.0 2.3 2.1 2.1 1.7 2.0 2.5 2.7 3.7 5.2 1.2 0.5 0.2 0.1 0.1 0.1 0.1 0.1 0.1 0.1 0.1 0.2 0.3 0.3 0.3 0.2 0.2 0.2 0.2 0.2 0.2 0.1 0.0 0.0 0.0 0.0 0.0
2.4 2.4 2.3 2.1 2.3 2.4 2.5 2.7 2.7 2.7 4.3 3.5 1.0 0.5 0.3 0.2 0.2 0.2 0.1 0.1 0.1 0.1 0.2 0.3 0.3 0.3 0.2 0.2 0.2 0.2 0.2 0.2 0.1 0.1 0.1 0.0 0.0 0.0
3.5 3.9 3.9 3.1 3.3 3.4 3.4 3.6 3.0 2.3 2.8 3.5 2.3 1.1 1.3 0.4 0.5 0.5 0.4 0.1 0.1 0.1 0.2 0.2 0.2 0.2 0.2 0.3 0.2 0.3 0.3 0.2 0.2 0.2 0.1 0.1 0.1 0.1
7.2 5.7 6.5 7.0 5.6 4.4 4.4 3.8 3.3 3.5 3.3 3.7 3.2 2.3 1.7 1.3 1.3 1.2 1.1 0.6 0.7 0.4 0.2 0.2 0.2 0.2 0.3 0.3 0.4 0.4 0.3 0.4 0.3 0.3 0.3 0.2 0.3 0.3
6.2 6.2 6.3 5.5 3.9 5.5 5.3 5.2 4.9 5.3 5.1 5.3 4.7 3.6 2.8 2.9 3.3 2.1 2.3 1.3 0.9 0.9 0.8 0.5 0.4 0.3 0.3 0.3 0.2 0.3 0.4 0.4 0.4 0.3 0.3 0.3 0.3 0.3
4.7 4.5 4.6 5.6 6.4 4.1 4.2 4.5 5.0 7.6 8.6 7.8 6.5 5.7 4.3 3.5 3.4 3.8 3.9 4.7 5.0 1.4 1.4 1.4 1.1 0.8 0.5 0.2 0.3 0.3 0.5 0.5 0.5 0.5 0.5 0.5 0.5 0.4
2.9 3.1 3.0 3.2 4.6 5.1 5.7 5.1 5.7 5.3 6.8 9.0 9.4 6.5 4.5 3.9 4.9 5.6 5.4 6.4 6.2 3.4 2.5 3.2 1.5 1.7 0.8 0.5 0.5 0.5 0.5 0.7 0.6 0.6 0.7 0.6 0.7 0.6
2.2 2.1 2.0 2.5 3.6 4.6 5.7 5.8 5.7 6.9 8.5 9.5 10.8 8.7 5.3 4.3 5.5 7.2 7.6 7.6 5.6 3.4 2.7 6.1 2.9 2.1 1.4 0.9 0.5 0.6 0.7 0.8 0.7 0.7 0.7 0.7 0.8 0.8
1.8 1.8 1.8 1.9 3.0 4.3 4.9 4.9 4.2 4.8 5.6 6.9 7.7 7.4 6.0 3.8 4.3 7.4 10.0 11.4 9.8 5.1 3.0 6.2 4.2 3.5 2.2 1.3 0.6 0.5 0.7 0.7 0.7 0.8 0.7 0.8 0.9 1.0
1.6 1.4 2.1 2.6 3.3 3.4 4.1 4.9 5.6 4.5 4.0 4.3 4.6 5.0 5.3 4.4 3.2 6.3 8.4 11.7 11.3 9.5 4.7 6.2 5.5 6.1 7.4 3.5 0.9 0.5 0.6 0.4 0.4 0.6 0.7 0.7 0.8 0.9
2.8 1.8 1.9 2.5 2.7 2.6 3.0 4.4 6.0 4.6 3.6 4.3 4.6 4.9 5.4 6.0 5.1 5.2 6.7 9.7 11.9 11.1 7.0 8.3 9.3 8.0 10.5 8.3 2.8 1.1 1.1 0.7 0.5 0.5 0.5 0.6 0.8 1.1
3.7 2.0 1.7 2.0 2.1 2.1 2.6 2.4 2.8 3.3 4.5 5.0 5.0 4.9 5.7 6.6 7.1 7.9 8.3 8.3 8.2 8.7 6.6 7.9 13.0 11.3 13.0 11.6 7.2 3.7 2.4 1.3 1.1 1.2 0.8 0.8 0.9 1.0
3.9 2.9 2.0 2.0 2.3 2.1 1.7 2.7 3.2 3.9 5.2 5.8 5.5 4.9 5.3 6.1 6.5 7.4 7.6 7.7 7.5 6.1 6.2 5.2 9.0 10.5 12.1 12.5 8.3 5.1 4.1 2.1 1.1 1.5 1.6 1.5 1.3 1.4
3.9 2.9 2.3 2.2 2.5 2.3 2.5 2.8 2.9 3.9 5.3 6.2 5.7 4.9 4.3 5.3 6.6 7.2 8.7 8.3 9.3 8.3 6.8 4.5 5.7 8.6 11.3 8.8 7.1 6.2 4.6 4.4 2.5 1.8 1.9 1.6 1.3 1.3
4.7 4.6 4.0 3.9 4.1 3.6 3.1 3.4 3.4 3.8 4.5 4.8 5.1 5.3 5.1 5.6 6.5 7.1 9.0 9.7 10.7 10.4 8.5 6.0 5.6 5.7 7.2 7.6 8.9 6.2 4.6 4.1 2.8 2.3 2.7 2.9 2.1 1.7
5.3 6.4 5.0 4.4 4.8 4.8 4.8 4.5 4.0 3.9 4.1 4.3 4.9 5.1 5.7 6.3 6.8 7.1 8.5 10.5 11.4 10.7 11.0 9.7 9.1 9.8 9.3 8.9 7.4 6.1 4.4 3.9 2.8 2.5 2.6 3.6 3.3 2.0
5.3 5.3 4.8 5.2 5.4 5.5 5.1 5.1 4.5 3.6 3.6 4.3 4.8 5.1 5.6 6.2 6.8 7.6 8.2 9.5 10.4 10.6 10.8 10.9 11.6 12.8 14.1 15.1 11.8 6.1 5.8 4.5 3.3 2.7 2.5 3.6 4.5 2.8
4.6 5.6 5.5 5.5 5.7 5.8 5.4 5.2 4.3 3.8 3.9 4.4 4.7 4.9 5.7 6.4 7.0 7.3 8.0 9.7 10.4 10.9 11.3 10.7 12.1 14.8 16.8 16.2 14.5 11.1 5.6 5.2 5.0 4.5 2.9 2.3 2.0 1.4
5.7 5.5 5.7 5.4 5.3 5.4 5.3 5.3 5.2 4.9 4.2 4.5 4.7 5.0 5.2 6.3 6.7 7.0 7.7 8.5 10.4 11.6 12.2 11.7 11.9 13.2 13.3 11.9 12.7 11.3 9.0 5.3 4.6 5.8 5.6 5.8 5.2 4.0
6.3 5.8 5.3 5.0 5.3 5.3 5.4 5.4 5.4 5.0 4.4 4.5 4.7 4.7 5.4 5.9 6.6 7.0 7.6 8.8 9.4 10.0 11.0 10.6 10.5 11.9 13.3 13.8 13.0 10.2 9.7 7.4 6.0 4.0 3.8 5.2 10.4 13.6
7.1 6.2 5.3 5.2 5.1 5.4 5.7 5.6 5.5 5.1 5.1 4.7 4.7 5.1 5.3 5.9 5.9 6.5 6.9 7.6 8.2 8.9 10.0 11.0 11.1 12.5 13.1 13.3 13.2 11.4 10.1 8.5 7.1 6.3 5.8 2.5 2.4 3.1